"Platform","Saginaw Bay ReCON Buoy"
"NDBC ID","45163"
"Latitude (deg)",43.985
"Longitude (deg)",-83.593
"Water Depth (m)",14
"Sensor Device","AirLink GX440 Cell Modem Radio"
"Sensor Type","Received Signal Level (RSL)"
"Sensor Units","decibels per milliwatt"
"Measurement","A sample"
"Time means","Time at sample (UTC time zone)"

"Note:","This data was collected for research purposes."
"Note:","Minimal quality checking has been performed so data may contain known or unknown errors."
"Note:","Data provided by NOAA. Please credit NOAA."
"Note:","For more info see www.glerl.noaa.gov/res/recon"

"Time (UTC)","RSL"
"YYYY/MM/DD HH:MM","dBm"
2015/05/29 01:04, -74
2015/05/29 01:24, -72
2015/05/29 01:41, -72
2015/05/29 02:01, -74
2015/05/29 02:21, -74
2015/05/29 02:41, -74
2015/05/29 03:01, -74
2015/05/29 03:21, -73
2015/05/29 03:41, -78
2015/05/29 04:01, -78
2015/05/29 04:24, -79
2015/05/29 04:44, -75
2015/05/29 05:04, -74
2015/05/29 05:24, -79
2015/05/29 05:41, -74
2015/05/29 06:04, -74
2015/05/29 06:24, -77
2015/05/29 06:41, -78
2015/05/29 07:04, -74
2015/05/29 07:24, -75
2015/05/29 07:41, -77
2015/05/29 08:04, -75
2015/05/29 08:24, -80
2015/05/29 08:41, -78
2015/05/29 09:04, -82
2015/05/29 09:24, -82
2015/05/29 09:41, -82
2015/05/29 10:04, -80
2015/05/29 10:24, -80
2015/05/29 10:41, -83
2015/05/29 11:04, -81
2015/05/29 11:24, -83
2015/05/29 11:41, -80
2015/05/29 12:04, -76
2015/05/29 12:24, -85
2015/05/29 12:41, -82
2015/05/29 13:04, -81
2015/05/29 13:24, -80
2015/05/29 13:41, -78
2015/05/29 14:04, -76
2015/05/29 14:24, -81
2015/05/29 14:41, -77
2015/05/29 15:04, -76
2015/05/29 15:24, -82
2015/05/29 15:41, -80
2015/05/29 16:04, -80
2015/05/29 16:24, -78
2015/05/29 16:41, -76
2015/05/29 17:04, -79
2015/05/29 17:24, -79
2015/05/29 17:41, -79
2015/05/29 18:04, -74
2015/05/29 18:24, -74
2015/05/29 18:41, -79
2015/05/29 19:04, -78
2015/05/29 19:24, -76
2015/05/29 19:41, -78
2015/05/29 20:04, -77
2015/05/29 20:24, -72
2015/05/29 20:41, -73
2015/05/29 21:04, -75
2015/05/29 21:24, -79
2015/05/29 21:41, -74
2015/05/29 22:04, -72
2015/05/29 22:24, -72
2015/05/29 22:41, -75
2015/05/29 23:04, -75
2015/05/29 23:24, -73
2015/05/29 23:41, -75
2015/05/30 00:04, -77
2015/05/30 00:24, -74
2015/05/30 00:41, -76
2015/05/30 01:04, -76
2015/05/30 01:24, -76
2015/05/30 01:41, -75
2015/05/30 02:04, -75
2015/05/30 02:24, -74
2015/05/30 02:41, -72
2015/05/30 03:04, -77
2015/05/30 03:24, -75
2015/05/30 03:41, -81
2015/05/30 04:06, -84
2015/05/30 04:24, -81
2015/05/30 04:41, -80
2015/05/30 05:04, -82
2015/05/30 05:24, -82
2015/05/30 05:41, -79
2015/05/30 06:04, -79
2015/05/30 06:24, -82
2015/05/30 06:41, -83
2015/05/30 07:04, -81
2015/05/30 07:24, -82
2015/05/30 07:41, -80
2015/05/30 08:04, -78
2015/05/30 08:24, -78
2015/05/30 08:41, -78
2015/05/30 09:04, -78
2015/05/30 09:24, -78
2015/05/30 09:41, -78
2015/05/30 10:04, -79
2015/05/30 10:24, -77
2015/05/30 10:42, -78
2015/05/30 11:04, -81
2015/05/30 11:24, -78
2015/05/30 11:41, -78
2015/05/30 12:04, -78
2015/05/30 12:24, -81
2015/05/30 12:42, -77
2015/05/30 13:04, -81
2015/05/30 13:24, -77
2015/05/30 13:41, -77
2015/05/30 14:04, -80
2015/05/30 14:24, -81
2015/05/30 14:41, -77
2015/05/30 15:24, -79
2015/05/30 15:41, -80
2015/05/30 16:04, -81
2015/05/30 16:24, -77
2015/05/30 16:41, -80
2015/05/30 17:04, -81
2015/05/30 17:24, -77
2015/05/30 17:42, -81
2015/05/30 18:04, -77
2015/05/30 18:24, -79
2015/05/30 18:41, -76
2015/05/30 19:04, -76
2015/05/30 19:24, -74
2015/05/30 19:42, -76
2015/05/30 20:04, -72
2015/05/30 20:24, -76
2015/05/30 20:41, -77
2015/05/30 21:04, -77
2015/05/30 21:24, -76
2015/05/30 21:42, -76
2015/05/30 22:04, -76
2015/05/30 22:24, -77
2015/05/30 22:41, -78
2015/05/30 23:04, -79
2015/05/30 23:24, -76
2015/05/30 23:42, -74
2015/05/31 00:04, -76
2015/05/31 00:24, -76
2015/05/31 00:41, -77
2015/05/31 01:04, -75
2015/05/31 01:24, -76
2015/05/31 01:41, -76
2015/05/31 02:04, -77
2015/05/31 02:24, -76
2015/05/31 02:42, -76
2015/05/31 03:04, -76
2015/05/31 03:24, -77
2015/05/31 03:41, -76
2015/05/31 04:04, -76
2015/05/31 04:24, -77
2015/05/31 04:42, -78
2015/05/31 05:04, -75
2015/05/31 05:24, -80
2015/05/31 05:41, -78
2015/05/31 06:06, -82
2015/05/31 06:24, -82
2015/05/31 06:42, -83
2015/05/31 07:04, -82
2015/05/31 07:24, -79
2015/05/31 07:41, -78
2015/05/31 08:04, -76
2015/05/31 08:24, -76
2015/05/31 08:42, -78
2015/05/31 09:04, -78
2015/05/31 09:24, -79
2015/05/31 09:41, -79
2015/05/31 10:04, -80
2015/05/31 10:24, -81
2015/05/31 10:42, -84
2015/05/31 11:04, -80
2015/05/31 11:24, -83
2015/05/31 11:41, -82
2015/05/31 12:04, -76
2015/05/31 12:24, -82
2015/05/31 12:42, -80
2015/05/31 13:04, -82
2015/05/31 13:24, -78
2015/05/31 13:41, -81
2015/05/31 14:04, -76
2015/05/31 14:24, -80
2015/05/31 14:42, -82
2015/05/31 15:04, -76
2015/05/31 15:24, -79
2015/05/31 15:41, -76
2015/05/31 16:04, -77
2015/05/31 16:24, -80
2015/05/31 16:42, -79
2015/05/31 17:04, -78
2015/05/31 17:24, -77
2015/05/31 17:41, -82
2015/05/31 18:04, -81
2015/05/31 18:24, -78
2015/05/31 18:42, -78
2015/05/31 19:04, -75
2015/05/31 19:24, -74
2015/05/31 19:41, -78
2015/05/31 20:04, -80
2015/05/31 20:24, -80
2015/05/31 20:42, -78
2015/05/31 21:04, -76
2015/05/31 21:24, -77
2015/05/31 21:41, -78
2015/05/31 22:04, -72
2015/05/31 22:24, -79
2015/05/31 22:42, -78
2015/05/31 23:04, -82
2015/05/31 23:24, -78
2015/05/31 23:41, -79
2015/06/01 00:04, -84
2015/06/01 00:24, -77
2015/06/01 00:42, -79
2015/06/01 01:04, -83
2015/06/01 01:24, -80
2015/06/01 01:41, -75
2015/06/01 02:04, -79
2015/06/01 02:24, -84
2015/06/01 02:41, -77
2015/06/01 03:24, -82
2015/06/01 03:41, -80
2015/06/01 04:04, -81
2015/06/01 04:24, -78
2015/06/01 04:41, -79
2015/06/01 05:24, -84
2015/06/01 05:41, -82
2015/06/01 06:04, -82
2015/06/01 06:24, -81
2015/06/01 06:42, -81
2015/06/01 07:04, -80
2015/06/01 07:24, -79
2015/06/01 07:41, -79
2015/06/01 08:04, -78
2015/06/01 08:24, -80
2015/06/01 08:42, -80
2015/06/01 09:04, -79
2015/06/01 09:24, -84
2015/06/01 09:41, -77
2015/06/01 10:04, -78
2015/06/01 10:24, -77
2015/06/01 10:41, -78
2015/06/01 11:04, -77
2015/06/01 11:24, -77
2015/06/01 11:42, -77
2015/06/01 12:04, -77
2015/06/01 12:24, -77
2015/06/01 12:41, -78
2015/06/01 13:04, -77
2015/06/01 13:24, -79
2015/06/01 13:42, -78
2015/06/01 14:04, -78
2015/06/01 14:24, -78
2015/06/01 14:41, -76
2015/06/01 15:04, -75
2015/06/01 15:24, -76
2015/06/01 15:42, -78
2015/06/01 16:04, -77
2015/06/01 16:24, -82
2015/06/01 16:41, -77
2015/06/01 17:04, -77
2015/06/01 17:24, -77
2015/06/01 17:42, -82
2015/06/01 18:04, -81
2015/06/01 18:24, -81
2015/06/01 18:41, -82
2015/06/01 19:04, -81
2015/06/01 19:24, -81
2015/06/01 19:42, -81
2015/06/01 20:01, -79
2015/06/01 20:21, -82
2015/06/01 20:41, -79
2015/06/01 21:01, -78
2015/06/01 21:21, -81
2015/06/01 21:41, -80
2015/06/01 22:01, -85
2015/06/01 22:21, -82
2015/06/01 22:41, -81
2015/06/01 23:04, -79
2015/06/01 23:24, -82
2015/06/01 23:41, -77
2015/06/02 00:04, -77
2015/06/02 00:24, -79
2015/06/02 00:41, -81
2015/06/02 01:04, -77
2015/06/02 01:24, -75
2015/06/02 01:41, -78
2015/06/02 02:04, -78
2015/06/02 02:24, -77
2015/06/02 02:41, -77
2015/06/02 03:04, -74
2015/06/02 03:24, -74
2015/06/02 03:41, -73
2015/06/02 04:04, -78
2015/06/02 04:24, -78
2015/06/02 04:41, -78
2015/06/02 05:04, -74
2015/06/02 05:24, -79
2015/06/02 05:41, -76
2015/06/02 06:04, -76
2015/06/02 06:24, -78
2015/06/02 06:41, -80
2015/06/02 07:04, -79
2015/06/02 07:24, -78
2015/06/02 07:41, -80
2015/06/02 08:04, -79
2015/06/02 08:24, -79
2015/06/02 08:41, -75
2015/06/02 09:04, -78
2015/06/02 09:24, -78
2015/06/02 09:42, -79
2015/06/02 10:04, -80
2015/06/02 10:24, -75
2015/06/02 10:41, -77
2015/06/02 11:04, -85
2015/06/02 11:24, -80
2015/06/02 11:41, -81
2015/06/02 12:04, -76
2015/06/02 12:24, -78
2015/06/02 12:41, -73
2015/06/02 13:04, -75
2015/06/02 13:24, -76
2015/06/02 13:41, -80
2015/06/02 14:04, -80
2015/06/02 14:24, -77
2015/06/02 14:41, -78
2015/06/02 15:04, -78
2015/06/02 15:24, -78
2015/06/02 15:42, -79
2015/06/02 16:04, -77
2015/06/02 16:24, -76
2015/06/02 16:41, -77
2015/06/02 17:04, -75
2015/06/02 17:24, -73
2015/06/02 17:41, -71
2015/06/02 18:04, -74
2015/06/02 18:24, -76
2015/06/02 18:41, -70
2015/06/02 19:04, -74
2015/06/02 19:21, -74
2015/06/02 19:41, -71
2015/06/02 20:01, -75
2015/06/02 20:21, -76
2015/06/02 20:41, -76
2015/06/02 21:01, -75
2015/06/02 21:21, -75
2015/06/02 21:41, -75
2015/06/02 22:01, -74
2015/06/02 22:21, -74
2015/06/02 22:41, -74
2015/06/02 23:01, -74
2015/06/02 23:24, -77
2015/06/02 23:41, -72
2015/06/03 00:04, -71
2015/06/03 00:24, -76
2015/06/03 00:41, -76
2015/06/03 01:04, -76
2015/06/03 01:24, -74
2015/06/03 01:41, -74
2015/06/03 02:04, -74
2015/06/03 02:24, -73
2015/06/03 02:42, -78
2015/06/03 03:04, -75
2015/06/03 03:24, -79
2015/06/03 03:41, -75
2015/06/03 04:04, -79
2015/06/03 04:24, -79
2015/06/03 04:42, -79
2015/06/03 05:04, -82
2015/06/03 05:24, -86
2015/06/03 05:41, -82
2015/06/03 06:04, -83
2015/06/03 06:24, -85
2015/06/03 06:42, -85
2015/06/03 07:04, -84
2015/06/03 07:24, -86
2015/06/03 07:41, -86
2015/06/03 08:04, -85
2015/06/03 08:24, -85
2015/06/03 08:42, -83
2015/06/03 09:04, -83
2015/06/03 09:24, -81
2015/06/03 09:41, -81
2015/06/03 10:04, -83
2015/06/03 10:24, -81
2015/06/03 10:42, -79
2015/06/03 11:04, -81
2015/06/03 11:24, -81
2015/06/03 11:41, -80
2015/06/03 12:04, -82
2015/06/03 12:24, -86
2015/06/03 12:42, -84
2015/06/03 13:01, -79
2015/06/03 13:21, -78
2015/06/03 13:41, -83
2015/06/03 14:01, -79
2015/06/03 14:21, -79
2015/06/03 14:41, -79
2015/06/03 15:01, -79
2015/06/03 15:21, -79
2015/06/03 15:41, -74
2015/06/03 16:04, -79
2015/06/03 16:24, -73
2015/06/03 16:42, -73
2015/06/03 17:04, -78
2015/06/03 17:24, -76
2015/06/03 17:41, -73
2015/06/03 18:04, -73
2015/06/03 18:24, -73
2015/06/03 18:42, -73
2015/06/03 19:04, -74
2015/06/03 19:24, -74
2015/06/03 19:41, -77
2015/06/03 20:04, -73
2015/06/03 20:24, -75
2015/06/03 20:42, -73
2015/06/03 21:04, -74
2015/06/03 21:24, -77
2015/06/03 21:41, -74
2015/06/03 22:04, -73
2015/06/03 22:24, -72
2015/06/03 22:42, -74
2015/06/03 23:04, -73
2015/06/03 23:24, -74
2015/06/03 23:41, -72
2015/06/04 00:04, -72
2015/06/04 00:24, -71
2015/06/04 00:42, -71
2015/06/04 01:10, -69
2015/06/04 01:29, -65
2015/06/04 01:41, -66
2015/06/04 02:24, -68
2015/06/04 02:41, -69
2015/06/04 03:06, -71
2015/06/04 03:24, -70
2015/06/04 03:42, -69
2015/06/04 04:08, -74
2015/06/04 04:24, -73
2015/06/04 04:41, -73
2015/06/04 05:16, -82
2015/06/04 05:24, -84
2015/06/04 05:41, -79
2015/06/04 06:04, -79
2015/06/04 06:24, -80
2015/06/04 06:42, -79
2015/06/04 07:04, -80
2015/06/04 07:24, -80
2015/06/04 07:41, -77
2015/06/04 08:04, -82
2015/06/04 08:24, -78
2015/06/04 08:42, -78
2015/06/04 09:04, -77
2015/06/04 09:24, -79
2015/06/04 09:41, -79
2015/06/04 10:04, -76
2015/06/04 10:24, -75
2015/06/04 10:42, -76
2015/06/04 11:04, -77
2015/06/04 11:24, -77
2015/06/04 11:41, -76
2015/06/04 12:04, -75
2015/06/04 12:24, -75
2015/06/04 12:42, -76
2015/06/04 13:04, -79
2015/06/04 13:24, -79
2015/06/04 13:41, -79
2015/06/04 14:04, -76
2015/06/04 14:24, -77
2015/06/04 14:42, -77
2015/06/04 15:04, -79
2015/06/04 15:24, -77
2015/06/04 15:42, -76
2015/06/04 16:04, -77
2015/06/04 16:24, -77
2015/06/04 16:42, -76
2015/06/04 17:04, -76
2015/06/04 17:24, -77
2015/06/04 17:42, -75
2015/06/04 18:04, -74
2015/06/04 18:24, -80
2015/06/04 18:42, -81
2015/06/04 19:04, -81
2015/06/04 19:24, -74
2015/06/04 19:42, -73
2015/06/04 20:04, -73
2015/06/04 20:24, -74
2015/06/04 20:42, -75
2015/06/04 21:04, -74
2015/06/04 21:24, -73
2015/06/04 21:42, -71
2015/06/04 22:04, -76
2015/06/04 22:24, -73
2015/06/04 22:42, -74
2015/06/04 23:04, -72
2015/06/04 23:24, -73
2015/06/04 23:42, -74
2015/06/05 00:04, -72
2015/06/05 00:24, -72
2015/06/05 00:42, -73
2015/06/05 01:04, -71
2015/06/05 01:24, -73
2015/06/05 01:42, -72
2015/06/05 02:04, -72
2015/06/05 02:24, -68
2015/06/05 02:42, -67
2015/06/05 03:04, -71
2015/06/05 03:24, -72
2015/06/05 03:42, -69
2015/06/05 04:04, -73
2015/06/05 04:24, -74
2015/06/05 04:42, -71
2015/06/05 05:04, -73
2015/06/05 05:24, -77
2015/06/05 05:42, -76
2015/06/05 06:04, -75
2015/06/05 06:24, -76
2015/06/05 06:42, -74
2015/06/05 07:04, -74
2015/06/05 07:24, -74
2015/06/05 07:42, -75
2015/06/05 08:05, -74
2015/06/05 08:25, -75
2015/06/05 08:42, -75
2015/06/05 09:05, -76
2015/06/05 09:25, -77
2015/06/05 09:42, -77
2015/06/05 10:05, -76
2015/06/05 10:24, -77
2015/06/05 10:42, -77
2015/06/05 11:04, -76
2015/06/05 11:24, -76
2015/06/05 11:42, -75
2015/06/05 12:05, -75
2015/06/05 12:24, -76
2015/06/05 12:42, -75
2015/06/05 13:05, -74
2015/06/05 13:24, -77
2015/06/05 13:42, -82
2015/06/05 14:05, -81
2015/06/05 14:25, -81
2015/06/05 14:42, -80
2015/06/05 15:03, -80
2015/06/05 15:23, -80
2015/06/05 15:43, -80
2015/06/05 16:03, -80
2015/06/05 16:23, -80
2015/06/05 16:43, -80
2015/06/05 17:06, -81
2015/06/05 17:26, -77
2015/06/05 17:43, -82
2015/06/05 18:06, -82
2015/06/05 18:26, -81
2015/06/05 18:43, -79
2015/06/05 19:06, -78
2015/06/05 19:26, -81
2015/06/05 19:43, -78
2015/06/05 20:06, -81
2015/06/05 20:26, -81
2015/06/05 20:43, -78
2015/06/05 21:06, -78
2015/06/05 21:26, -83
2015/06/05 21:43, -80
2015/06/05 22:06, -79
2015/06/05 22:26, -80
2015/06/05 22:43, -83
2015/06/05 23:06, -78
2015/06/05 23:26, -79
2015/06/05 23:43, -78
2015/06/06 00:06, -74
2015/06/06 00:26, -82
2015/06/06 00:44, -77
2015/06/06 01:06, -79
2015/06/06 01:26, -75
2015/06/06 01:43, -76
2015/06/06 02:06, -76
2015/06/06 02:26, -79
2015/06/06 02:44, -76
2015/06/06 03:06, -76
2015/06/06 03:26, -76
2015/06/06 03:44, -77
2015/06/06 04:07, -75
2015/06/06 04:26, -78
2015/06/06 04:44, -77
2015/06/06 05:06, -79
2015/06/06 05:26, -81
2015/06/06 05:44, -81
2015/06/06 06:07, -78
2015/06/06 06:26, -80
2015/06/06 06:44, -80
2015/06/06 07:07, -81
2015/06/06 07:26, -81
2015/06/06 07:44, -83
2015/06/06 08:07, -80
2015/06/06 08:26, -81
2015/06/06 08:44, -80
2015/06/06 09:07, -83
2015/06/06 09:27, -83
2015/06/06 09:44, -80
2015/06/06 10:07, -83
2015/06/06 10:26, -79
2015/06/06 10:44, -78
2015/06/06 11:07, -81
2015/06/06 11:26, -82
2015/06/06 11:44, -83
2015/06/06 12:07, -79
2015/06/06 12:26, -82
2015/06/06 12:44, -78
2015/06/06 13:07, -79
2015/06/06 13:27, -81
2015/06/06 13:44, -82
2015/06/06 14:07, -79
2015/06/06 14:27, -82
2015/06/06 14:44, -76
2015/06/06 15:08, -82
2015/06/06 15:26, -83
2015/06/06 15:44, -79
2015/06/06 16:08, -82
2015/06/06 16:27, -82
2015/06/06 16:45, -82
2015/06/06 17:07, -79
2015/06/06 17:27, -82
2015/06/06 17:44, -76
2015/06/06 18:08, -82
2015/06/06 18:27, -79
2015/06/06 18:44, -79
2015/06/06 19:08, -79
2015/06/06 19:27, -82
2015/06/06 19:44, -84
2015/06/06 20:44, -79
2015/06/06 22:04, -80
2015/06/06 22:24, -80
2015/06/06 22:41, -78
2015/06/06 23:04, -82
2015/06/06 23:24, -74
2015/06/06 23:41, -80
2015/06/07 00:04, -77
2015/06/07 00:24, -77
2015/06/07 00:41, -76
2015/06/07 01:04, -76
2015/06/07 01:24, -76
2015/06/07 01:41, -76
2015/06/07 02:04, -75
2015/06/07 02:24, -80
2015/06/07 02:41, -77
2015/06/07 03:04, -75
2015/06/07 03:24, -81
2015/06/07 03:41, -80
2015/06/07 04:04, -81
2015/06/07 04:24, -81
2015/06/07 04:41, -80
2015/06/07 05:04, -81
2015/06/07 05:24, -82
2015/06/07 05:41, -83
2015/06/07 06:04, -83
2015/06/07 06:24, -82
2015/06/07 06:41, -81
2015/06/07 07:04, -81
2015/06/07 07:24, -82
2015/06/07 07:41, -83
2015/06/07 08:04, -77
2015/06/07 08:24, -81
2015/06/07 08:41, -76
2015/06/07 09:04, -76
2015/06/07 09:24, -80
2015/06/07 09:41, -80
2015/06/07 10:04, -81
2015/06/07 10:24, -81
2015/06/07 10:41, -82
2015/06/07 11:04, -84
2015/06/07 11:24, -83
2015/06/07 11:41, -88
2015/06/07 12:04, -83
2015/06/07 12:24, -80
2015/06/07 12:41, -79
2015/06/07 13:04, -82
2015/06/07 13:24, -81
2015/06/07 13:41, -78
2015/06/07 14:04, -75
2015/06/07 14:24, -78
2015/06/07 14:41, -78
2015/06/07 15:04, -77
2015/06/07 15:24, -78
2015/06/07 15:41, -75
2015/06/07 16:04, -76
2015/06/07 16:24, -80
2015/06/07 16:41, -77
2015/06/07 17:04, -75
2015/06/07 17:24, -79
2015/06/07 17:41, -78
2015/06/07 18:04, -77
2015/06/07 18:24, -77
2015/06/07 18:41, -78
2015/06/07 19:04, -78
2015/06/07 19:24, -76
2015/06/07 19:41, -76
2015/06/07 20:04, -77
2015/06/07 20:24, -77
2015/06/07 20:41, -80
2015/06/07 21:04, -81
2015/06/07 21:24, -81
2015/06/07 21:42, -81
2015/06/07 22:04, -81
2015/06/07 22:24, -76
2015/06/07 22:41, -81
2015/06/07 23:04, -73
2015/06/07 23:24, -76
2015/06/07 23:41, -79
2015/06/08 00:04, -77
2015/06/08 00:24, -80
2015/06/08 00:41, -76
2015/06/08 01:04, -81
2015/06/08 01:24, -79
2015/06/08 01:41, -82
2015/06/08 02:04, -82
2015/06/08 02:24, -82
2015/06/08 02:42, -83
2015/06/08 03:04, -78
2015/06/08 03:24, -79
2015/06/08 03:42, -82
2015/06/08 04:04, -79
2015/06/08 04:24, -79
2015/06/08 04:41, -82
2015/06/08 05:04, -78
2015/06/08 05:24, -81
2015/06/08 05:41, -81
2015/06/08 06:04, -78
2015/06/08 06:24, -82
2015/06/08 06:41, -82
2015/06/08 07:04, -78
2015/06/08 07:24, -79
2015/06/08 07:42, -81
2015/06/08 08:04, -81
2015/06/08 08:24, -78
2015/06/08 08:42, -79
2015/06/08 09:04, -78
2015/06/08 09:24, -81
2015/06/08 09:42, -81
2015/06/08 10:04, -82
2015/06/08 10:24, -82
2015/06/08 10:41, -81
2015/06/08 11:04, -83
2015/06/08 11:24, -81
2015/06/08 11:42, -80
2015/06/08 12:04, -81
2015/06/08 12:24, -81
2015/06/08 12:42, -79
2015/06/08 13:04, -83
2015/06/08 13:24, -84
2015/06/08 13:42, -85
2015/06/08 14:04, -83
2015/06/08 14:24, -83
2015/06/08 14:42, -79
2015/06/08 15:04, -80
2015/06/08 15:24, -81
2015/06/08 15:42, -80
2015/06/08 16:04, -81
2015/06/08 16:24, -82
2015/06/08 16:42, -82
2015/06/08 17:04, -81
2015/06/08 17:24, -82
2015/06/08 17:42, -82
2015/06/08 18:04, -78
2015/06/08 18:24, -76
2015/06/08 18:42, -76
2015/06/08 19:04, -79
2015/06/08 19:24, -74
2015/06/08 19:42, -74
2015/06/08 20:04, -74
2015/06/08 20:24, -75
2015/06/08 20:42, -75
2015/06/08 21:04, -75
2015/06/08 21:24, -74
2015/06/08 21:42, -75
2015/06/08 22:04, -82
2015/06/08 22:24, -78
2015/06/08 22:42, -72
2015/06/08 23:04, -78
2015/06/08 23:24, -76
2015/06/08 23:42, -77
2015/06/09 00:04, -77
2015/06/09 00:24, -73
2015/06/09 00:42, -77
2015/06/09 01:04, -78
2015/06/09 01:24, -81
2015/06/09 01:42, -76
2015/06/09 02:04, -75
2015/06/09 02:24, -76
2015/06/09 02:42, -79
2015/06/09 03:04, -78
2015/06/09 03:24, -79
2015/06/09 03:42, -79
2015/06/09 04:04, -76
2015/06/09 04:24, -82
2015/06/09 04:42, -82
2015/06/09 05:04, -81
2015/06/09 05:24, -81
2015/06/09 05:42, -81
2015/06/09 06:04, -80
2015/06/09 06:24, -81
2015/06/09 06:42, -83
2015/06/09 07:04, -83
2015/06/09 07:24, -79
2015/06/09 07:42, -78
2015/06/09 08:04, -80
2015/06/09 08:24, -77
2015/06/09 08:42, -77
2015/06/09 09:04, -77
2015/06/09 09:24, -77
2015/06/09 09:42, -78
2015/06/09 10:04, -74
2015/06/09 10:24, -78
2015/06/09 10:42, -78
2015/06/09 11:04, -78
2015/06/09 11:24, -79
2015/06/09 11:42, -78
2015/06/09 12:04, -79
2015/06/09 12:24, -78
2015/06/09 12:42, -78
2015/06/09 13:04, -82
2015/06/09 13:24, -80
2015/06/09 13:42, -82
2015/06/09 14:04, -78
2015/06/09 14:24, -79
2015/06/09 14:42, -80
2015/06/09 15:04, -80
2015/06/09 15:24, -77
2015/06/09 15:42, -78
2015/06/09 16:04, -75
2015/06/09 16:24, -76
2015/06/09 16:42, -79
2015/06/09 17:04, -79
2015/06/09 17:24, -78
2015/06/09 17:42, -78
2015/06/09 18:04, -78
2015/06/09 18:24, -76
2015/06/09 18:42, -72
2015/06/09 19:04, -78
2015/06/09 19:24, -73
2015/06/09 19:42, -75
2015/06/09 20:04, -74
2015/06/09 20:24, -68
2015/06/09 21:04, -74
2015/06/09 21:29, -72
2015/06/09 21:42, -71
2015/06/09 22:04, -77
2015/06/09 22:24, -74
2015/06/09 22:42, -74
2015/06/09 23:04, -77
2015/06/09 23:24, -78
2015/06/09 23:42, -76
2015/06/10 00:04, -78
2015/06/10 00:24, -77
2015/06/10 00:42, -73
2015/06/10 01:04, -71
2015/06/10 01:24, -71
2015/06/10 01:42, -70
2015/06/10 02:04, -73
2015/06/10 02:24, -72
2015/06/10 02:42, -69
2015/06/10 03:04, -71
2015/06/10 03:24, -73
2015/06/10 03:42, -73
2015/06/10 04:04, -73
2015/06/10 04:24, -73
2015/06/10 04:42, -73
2015/06/10 05:04, -72
2015/06/10 05:24, -72
2015/06/10 05:42, -74
2015/06/10 06:04, -76
2015/06/10 06:24, -72
2015/06/10 06:42, -76
2015/06/10 07:04, -75
2015/06/10 07:24, -74
2015/06/10 07:42, -77
2015/06/10 08:04, -80
2015/06/10 08:24, -83
2015/06/10 08:42, -80
2015/06/10 09:04, -80
2015/06/10 09:24, -81
2015/06/10 09:42, -80
2015/06/10 10:04, -80
2015/06/10 10:24, -80
2015/06/10 10:42, -80
2015/06/10 11:04, -83
2015/06/10 11:24, -77
2015/06/10 11:42, -81
2015/06/10 12:04, -77
2015/06/10 12:24, -83
2015/06/10 12:42, -82
2015/06/10 13:04, -76
2015/06/10 13:24, -80
2015/06/10 13:42, -79
2015/06/10 14:04, -76
2015/06/10 14:24, -80
2015/06/10 14:42, -76
2015/06/10 15:04, -76
2015/06/10 15:24, -75
2015/06/10 15:42, -76
2015/06/10 16:04, -77
2015/06/10 16:24, -76
2015/06/10 16:42, -77
2015/06/10 17:04, -77
2015/06/10 17:24, -77
2015/06/10 17:42, -78
2015/06/10 18:04, -76
2015/06/10 18:24, -78
2015/06/10 18:42, -74
2015/06/10 19:04, -76
2015/06/10 19:24, -75
2015/06/10 19:42, -75
2015/06/10 20:04, -71
2015/06/10 20:24, -77
2015/06/10 20:42, -72
2015/06/10 21:04, -76
2015/06/10 21:24, -70
2015/06/10 21:42, -76
2015/06/10 22:04, -77
2015/06/10 22:24, -75
2015/06/10 22:42, -76
2015/06/10 23:04, -76
2015/06/10 23:24, -77
2015/06/10 23:42, -73
2015/06/11 00:04, -71
2015/06/11 00:24, -76
2015/06/11 00:42, -75
2015/06/11 01:04, -74
2015/06/11 01:24, -73
2015/06/11 01:42, -71
2015/06/11 02:04, -71
2015/06/11 02:24, -75
2015/06/11 02:42, -76
2015/06/11 03:04, -76
2015/06/11 03:24, -76
2015/06/11 03:42, -75
2015/06/11 04:04, -75
2015/06/11 04:24, -75
2015/06/11 04:42, -76
2015/06/11 05:04, -78
2015/06/11 05:24, -76
2015/06/11 05:42, -76
2015/06/11 06:04, -75
2015/06/11 06:24, -76
2015/06/11 06:42, -76
2015/06/11 07:04, -79
2015/06/11 07:24, -80
2015/06/11 07:42, -75
2015/06/11 08:04, -77
2015/06/11 08:24, -78
2015/06/11 08:42, -76
2015/06/11 09:04, -77
2015/06/11 09:24, -76
2015/06/11 09:42, -76
2015/06/11 10:04, -76
2015/06/11 10:24, -77
2015/06/11 10:42, -77
2015/06/11 11:04, -77
2015/06/11 11:24, -77
2015/06/11 11:42, -72
2015/06/11 12:04, -77
2015/06/11 12:24, -79
2015/06/11 12:42, -77
2015/06/11 13:04, -78
2015/06/11 13:24, -78
2015/06/11 13:42, -78
2015/06/11 14:04, -76
2015/06/11 14:24, -78
2015/06/11 14:42, -80
2015/06/11 15:04, -80
2015/06/11 15:24, -80
2015/06/11 15:42, -79
2015/06/11 16:04, -80
2015/06/11 16:24, -80
2015/06/11 16:42, -79
2015/06/11 17:04, -80
2015/06/11 17:24, -82
2015/06/11 17:42, -79
2015/06/11 18:04, -79
2015/06/11 18:24, -80
2015/06/11 18:42, -81
2015/06/11 19:04, -75
2015/06/11 19:24, -76
2015/06/11 19:42, -74
2015/06/11 20:04, -73
2015/06/11 20:24, -75
2015/06/11 20:42, -72
2015/06/11 21:04, -73
2015/06/11 21:24, -72
2015/06/11 21:42, -70
2015/06/11 22:04, -70
2015/06/11 22:24, -69
2015/06/11 22:42, -70
2015/06/11 23:04, -74
2015/06/11 23:24, -75
2015/06/11 23:42, -69
2015/06/12 00:04, -73
2015/06/12 00:24, -70
2015/06/12 00:42, -72
2015/06/12 01:04, -73
2015/06/12 01:24, -76
2015/06/12 01:42, -76
2015/06/12 02:04, -79
2015/06/12 02:24, -76
2015/06/12 02:42, -80
2015/06/12 03:04, -81
2015/06/12 03:24, -80
2015/06/12 03:42, -76
2015/06/12 04:04, -77
2015/06/12 04:24, -81
2015/06/12 04:42, -82
2015/06/12 05:04, -81
2015/06/12 05:24, -81
2015/06/12 05:42, -82
2015/06/12 06:04, -81